Powrót do katalogu

CYGFM03

AktywnyPogodaVLEO
NORAD 41891·PAYLOAD·🇺🇸 United States

Wystrzelony Dec 15, 2016 z Cape Canaveral Space Force Station

Loading…

Następne Przeloty (najbliższe 24 godziny)

TLE

ŚwieżeSource: Space-Track

Epoka: Sep 14, 2026, 15:15 UTC

1 41891U 16078H   26257.63588696  .00030191  00000-0  29731-3 0  9997
2 41891  34.9407 353.9017 0003936 321.6201  38.4245 15.64912428542971

Śledź CYGFM03 w czasie rzeczywistym z AllMySat

Download on the App Store